Weather History for KF44 - October, 2013

Change the Weather History Date:

Wednesday, October 16, 2013

  Actual Average (KTYR) Record (KTYR)
Temperature  
Mean Temperature 56 °F 67 °F  
Max Temperature 59 °F 78 °F 98 °F (1910)
Min Temperature 53 °F 56 °F 36 °F (1966)
Degree Days  
Heating Degree Days 9 2  
Month to date heating degree days 19  
Since 1 July heating degree days 24  
Cooling Degree Days 0 4  
Month to date cooling degree days 86  
Year to date cooling degree days 2350  
Growing Degree Days 6 (Base 50)    
Moisture  
Dew Point 54 °F    
Average Humidity 98    
Maximum Humidity 100    
Minimum Humidity 94    
Precipitation  
Precipitation 1.06 in 0.17 in 2.55 in (1923)
Month to date precipitation 2.29  
Year to date precipitation 34.89  
Snow  
Snow 0.00 in - - ()
Month to date snowfall  
Since 1 July snowfall  
Since 1 September snowfall  
Snow Depth -    
Sea Level Pressure  
Sea Level Pressure 30.02 in    
Wind  
Wind Speed 7 mph (North)    
Max Wind Speed 14 mph    
Max Gust Speed 20 mph    
Visibility 8 miles    
Events Rain    
T = Trace of Precipitation, MM = Missing Value Source: NWS Daily Summary

Daily Weather History Graph

Daily Weather History Graph

Search for Another Location

Airport or City:

Trip Planner

Search our weather history database for the weather conditions in past years. The results will help you decide how hot, cold, wet, or windy it might be!

Date:

Astronomy

Oct. 16, 2013 Rise Set
Actual Time 7:27 AM CDT 6:49 PM CDT
Civil Twilight 7:03 AM CDT 7:13 PM CDT
Nautical Twilight 6:34 AM CDT 7:42 PM CDT
Astronomical Twilight 6:06 AM CDT 8:10 PM CDT
Moon 5:23 PM CDT (10/16) 5:04 AM CDT (10/16)
Length of Visible Light 12h 10m
Length of Day
11h 21m
Waxing Gibbous, 94% of the Moon is Illuminated
Oct 16
Waxing Gibbous
Oct 18
Full
Oct 26
Last Quarter
Nov 3
New
Nov 9
First Quarter

Hourly Weather History & Observations

Time (CDT) Temp. Dew Point Humidity Pressure Visibility Wind Dir Wind Speed Gust Speed Precip Events Conditions
12:15 AM 59.0 °F 57.2 °F 94% 29.98 in 10.0 mi NNW 8.1 mph - N/A Rain Rain
12:35 AM 57.2 °F 57.2 °F 100% 29.98 in 5.0 mi North 8.1 mph 18.4 mph 0.07 in Rain Rain
12:55 AM 57.2 °F 57.2 °F 100% 29.99 in 4.0 mi North 8.1 mph - 0.19 in Rain Heavy Rain
1:15 AM 55.4 °F 55.4 °F 100% 29.98 in 10.0 mi North 8.1 mph - 0.03 in Rain Light Rain
1:35 AM 55.4 °F 55.4 °F 100% 29.97 in 10.0 mi North 13.8 mph 19.6 mph 0.05 in Rain Rain
1:55 AM 55.4 °F 55.4 °F 100% 29.97 in 5.0 mi North 9.2 mph 19.6 mph 0.10 in Rain Rain
2:15 AM 55.4 °F 55.4 °F 100% 29.97 in 7.0 mi North 6.9 mph - 0.02 in Rain Rain
2:35 AM 55.4 °F 55.4 °F 100% 29.97 in 7.0 mi North 6.9 mph - 0.08 in Rain Rain
2:55 AM 55.4 °F 55.4 °F 100% 29.96 in 7.0 mi North 8.1 mph - 0.13 in Rain Light Rain
3:15 AM 55.4 °F 55.4 °F 100% 29.96 in 10.0 mi NNW 6.9 mph - N/A   Drizzle
3:35 AM 55.4 °F 53.6 °F 94% 29.98 in 5.0 mi NNW 6.9 mph - 0.06 in Rain Rain
3:55 AM 55.4 °F 53.6 °F 94% 29.96 in 7.0 mi North 8.1 mph - 0.16 in Rain Heavy Rain
4:15 AM 53.6 °F 53.6 °F 100% 29.99 in 10.0 mi NNW 4.6 mph - 0.02 in Rain Light Rain
4:35 AM 53.6 °F 53.6 °F 100% 29.98 in 5.0 mi North 8.1 mph - 0.12 in Rain Heavy Rain
4:55 AM 53.6 °F 53.6 °F 100% 29.99 in 10.0 mi North 5.8 mph - 0.17 in Rain Rain
5:15 AM 53.6 °F 53.6 °F 100% 30.00 in 10.0 mi North 5.8 mph - 0.02 in Rain Light Rain
5:35 AM 53.6 °F 53.6 °F 100% 30.00 in 7.0 mi North 5.8 mph - 0.07 in Rain Heavy Rain
5:55 AM 53.6 °F 53.6 °F 100% 30.01 in 7.0 mi NW 3.5 mph - 0.15 in Rain Rain
6:15 AM 53.6 °F 53.6 °F 100% 30.01 in 7.0 mi North 5.8 mph - 0.05 in Rain Rain
6:35 AM 53.6 °F 53.6 °F 100% 30.01 in 10.0 mi North 8.1 mph - 0.07 in Rain Light Rain
6:55 AM 53.6 °F 53.6 °F 100% 30.02 in 10.0 mi North 3.5 mph - 0.08 in Rain Rain
7:15 AM 53.6 °F 53.6 °F 100% 30.01 in 10.0 mi North 4.6 mph - N/A Rain Light Rain
7:35 AM 53.6 °F 53.6 °F 100% 30.01 in 10.0 mi North 4.6 mph - 0.02 in Rain Rain
7:55 AM 53.6 °F 53.6 °F 100% 30.02 in 10.0 mi North 8.1 mph - 0.05 in Rain Rain
8:15 AM 53.6 °F 53.6 °F 100% 30.03 in 10.0 mi North 5.8 mph - 0.01 in Rain Light Rain
8:35 AM 53.6 °F 53.6 °F 100% 30.04 in 10.0 mi NNW 5.8 mph - 0.01 in Rain Rain
8:55 AM 53.6 °F 53.6 °F 100% 30.04 in 10.0 mi North 6.9 mph - 0.02 in Rain Light Rain
9:15 AM 53.6 °F 53.6 °F 100% 30.05 in 4.0 mi North 8.1 mph - 0.01 in Rain Light Rain
9:35 AM 53.6 °F 53.6 °F 100% 30.05 in 5.0 mi North 8.1 mph - 0.01 in Rain Rain
9:55 AM 53.6 °F 53.6 °F 100% 30.05 in 10.0 mi North 11.5 mph - 0.01 in   Light Drizzle
10:15 AM 53.6 °F 53.6 °F 100% 30.05 in 10.0 mi North 11.5 mph - N/A   Overcast
10:35 AM 53.6 °F 53.6 °F 100% 30.05 in 10.0 mi North 9.2 mph - N/A   Overcast
10:55 AM 55.4 °F 53.6 °F 94% 30.04 in 10.0 mi North 11.5 mph - N/A   Overcast
11:15 AM 55.4 °F 53.6 °F 94% 30.06 in 10.0 mi NNW 5.8 mph - N/A   Overcast
11:35 AM 55.4 °F 53.6 °F 94% 30.06 in 7.0 mi North 6.9 mph - N/A   Overcast
11:55 AM 55.4 °F 53.6 °F 94% 30.06 in 7.0 mi North 9.2 mph - N/A   Overcast
12:15 PM 55.4 °F 53.6 °F 94% 30.05 in 5.0 mi North 9.2 mph - N/A   Drizzle
12:35 PM 55.4 °F 53.6 °F 94% 30.05 in 5.0 mi North 8.1 mph - N/A   Overcast
12:55 PM 55.4 °F 53.6 °F 94% 30.04 in 5.0 mi North 9.2 mph - N/A   Overcast
1:15 PM 55.4 °F 53.6 °F 94% 30.03 in 5.0 mi North 8.1 mph - N/A   Overcast
1:35 PM 55.4 °F 53.6 °F 94% 30.02 in 7.0 mi North 8.1 mph - N/A   Overcast
1:55 PM 55.4 °F 53.6 °F 94% 30.02 in 10.0 mi North 8.1 mph - N/A   Overcast
2:15 PM 55.4 °F 55.4 °F 100% 30.01 in 10.0 mi North 6.9 mph - N/A   Overcast
2:35 PM 55.4 °F 53.6 °F 94% 30.01 in 10.0 mi NNW 9.2 mph - N/A   Overcast
2:55 PM 55.4 °F 53.6 °F 94% 30.01 in 10.0 mi North 8.1 mph - N/A   Overcast
3:15 PM 55.4 °F 55.4 °F 100% 30.01 in 7.0 mi North 8.1 mph - N/A   Overcast
3:35 PM 55.4 °F 53.6 °F 94% 30.01 in 7.0 mi North 8.1 mph - N/A   Overcast
3:55 PM 57.2 °F 55.4 °F 94% 30.01 in 10.0 mi North 8.1 mph - N/A   Overcast
4:15 PM 57.2 °F 55.4 °F 94% 30.01 in 7.0 mi NW 4.6 mph - N/A   Overcast
4:35 PM 55.4 °F 55.4 °F 100% 30.01 in 4.0 mi NNW 4.6 mph - N/A   Overcast
4:55 PM 55.4 °F 55.4 °F 100% 30.01 in 10.0 mi NNW 5.8 mph - N/A   Overcast
5:15 PM 55.4 °F 55.4 °F 100% 30.01 in 2.0 mi North 5.8 mph - N/A   Overcast
5:35 PM 55.4 °F 55.4 °F 100% 30.00 in 3.0 mi North 4.6 mph - N/A   Drizzle
5:55 PM 55.4 °F 55.4 °F 100% 30.00 in 3.0 mi North 8.1 mph - N/A   Overcast
6:15 PM 55.4 °F 55.4 °F 100% 30.01 in 7.0 mi NNW 5.8 mph - N/A   Overcast
6:35 PM 55.4 °F 53.6 °F 94% 30.01 in 7.0 mi North 6.9 mph - N/A   Overcast
6:55 PM 55.4 °F 53.6 °F 94% 30.02 in 10.0 mi North 6.9 mph - N/A   Overcast
7:15 PM 55.4 °F 53.6 °F 94% 30.03 in 10.0 mi North 5.8 mph - N/A   Overcast
7:35 PM 55.4 °F 53.6 °F 94% 30.04 in 7.0 mi NNW 5.8 mph - N/A   Drizzle
7:55 PM 53.6 °F 53.6 °F 100% 30.04 in 5.0 mi North 4.6 mph - N/A   Drizzle
8:35 PM 53.6 °F 53.6 °F 100% 30.05 in 10.0 mi North 6.9 mph - N/A   Overcast
8:55 PM 53.6 °F 53.6 °F 100% 30.05 in 10.0 mi North 6.9 mph - N/A   Overcast
9:15 PM 53.6 °F 53.6 °F 100% 30.05 in 10.0 mi NNE 5.8 mph - N/A   Overcast
9:35 PM 53.6 °F 51.8 °F 94% 30.05 in 10.0 mi Calm Calm - N/A   Overcast
9:55 PM 53.6 °F 53.6 °F 100% 30.06 in 10.0 mi Calm Calm - N/A   Overcast
10:15 PM 53.6 °F 53.6 °F 100% 30.06 in 10.0 mi North 3.5 mph - N/A   Overcast
10:35 PM 55.4 °F 53.6 °F 94% 30.06 in 10.0 mi NNE 3.5 mph - N/A   Overcast
10:55 PM 55.4 °F 53.6 °F 94% 30.06 in 10.0 mi Calm Calm - N/A   Overcast
11:15 PM 55.4 °F 53.6 °F 94% 30.06 in 10.0 mi Calm Calm - N/A   Overcast
11:35 PM 55.4 °F 53.6 °F 94% 30.06 in 10.0 mi NNW 3.5 mph - N/A   Overcast
11:55 PM 53.6 °F 53.6 °F 100% 30.05 in 10.0 mi Calm Calm - N/A   Overcast